Location: Buckeye Ditch
(40.9104°N, 122.9517°W)
Time: 23:04:13
(UTC+00:00)

Transit 2A - Pass Details

Date: 27 May 2025
Orbit: 599 x 947 km, 66.7° (Epoch: 20 June)

Event Time Altitude Azimuth Distance (km) Brightness Sun altitude
Rises 23:11:58 0° 316° (NW) 2,931 9.3 46.9°
Reaches altitude 10° 23:14:30 10° 303° (WNW) 2,060 8.9 46.5°
Maximum altitude 23:18:13 24° 249° (WSW) 1,398 8.9 45.8°
Drops below altitude 10° 23:22:11 10° 196° (SSW) 2,204 8.8 45.1°
Sets 23:25:01 0° 183° (S) 3,188 9.3 44.5°
